| time (UTC) | temp C | wind direction | speed KPH | gust KPH | rain 1hr cm | rain 24hr cm | rain mn cm | humidity % | barometer mb |
| 20260504042208 | 6 | 215 | 1.6 | 4.8 | 0.00 | 0.18 | 0.00 | 94 | 1010.5 |
| 20260504041208 | 6 | 207 | 1.6 | 3.2 | 0.00 | 0.18 | 0.00 | 94 | 1010.4 |
| 20260504040207 | 6 | 236 | 1.6 | 3.2 | 0.03 | 0.18 | 0.00 | 94 | 1010.6 |
| 20260504035209 | 6 | 275 | 0.0 | 1.6 | 0.05 | 0.18 | 0.18 | 94 | 1010.6 |
| 20260504034208 | 6 | 280 | 0.0 | 1.6 | 0.08 | 0.18 | 0.18 | 94 | 1010.6 |
| 20260504033208 | 7 | 5 | 0.0 | 1.6 | 0.10 | 0.18 | 0.18 | 94 | 1010.7 |
| 20260504032208 | 7 | 33 | 0.0 | 1.6 | 0.10 | 0.18 | 0.18 | 94 | 1011.0 |
| 20260504030206 | 7 | 285 | 1.6 | 3.2 | 0.10 | 0.15 | 0.15 | 93 | 1011.5 |
| 20260504025208 | 7 | 294 | 0.0 | 4.8 | 0.08 | 0.13 | 0.13 | 92 | 1011.4 |
| 20260504023208 | 7 | 291 | 0.0 | 3.2 | 0.05 | 0.08 | 0.08 | 92 | 1011.2 |
| 20260504022208 | 7 | 346 | 0.0 | 6.4 | 0.05 | 0.08 | 0.08 | 91 | 1011.1 |
| 20260504021209 | 7 | 350 | 1.6 | 6.4 | 0.03 | 0.05 | 0.05 | 91 | 1011.4 |
| 20260504020208 | 7 | 284 | 1.6 | 6.4 | 0.05 | 0.05 | 0.05 | 91 | 1011.1 |
| 20260504015208 | 7 | 268 | 1.6 | 9.7 | 0.05 | 0.05 | 0.05 | 92 | 1011.0 |
| 20260504013209 | 6 | 268 | 0.0 | 4.8 | 0.03 | 0.03 | 0.03 | 89 | 1011.4 |
| 20260504010209 | 6 | 289 | 1.6 | 9.7 | 0.00 | 0.00 | 0.00 | 84 | 1011.5 |
| 20260504005208 | 7 | 282 | 1.6 | 9.7 | 0.00 | 0.00 | 0.00 | 78 | 1011.6 |
| 20260504004208 | 7 | 267 | 3.2 | 9.7 | 0.00 | 0.00 | 0.00 | 72 | 1011.5 |
| 20260504003210 | 7 | 264 | 3.2 | 9.7 | 0.00 | 0.00 | 0.00 | 68 | 1011.3 |
| 20260504002209 | 7 | 257 | 4.8 | 9.7 | 0.00 | 0.00 | 0.00 | 66 | 1011.1 |
| 20260504000209 | 7 | 247 | 3.2 | 6.4 | 0.00 | 0.00 | 0.00 | 61 | 1011.2 |
| 20260503235208 | 7 | 257 | 3.2 | 6.4 | 0.00 | 0.00 | 0.00 | 60 | 1011.2 |
| 20260503234208 | 7 | 251 | 3.2 | 6.4 | 0.00 | 0.00 | 0.00 | 59 | 1011.3 |
| 20260503233209 | 6 | 238 | 1.6 | 4.8 | 0.00 | 0.00 | 0.00 | 60 | 1011.3 |
| 20260503231209 | 6 | 232 | 3.2 | 4.8 | 0.00 | 0.00 | 0.00 | 59 | 1011.2 |
| 20260503230209 | 7 | 234 | 1.6 | 4.8 | 0.00 | 0.00 | 0.00 | 64 | 1011.3 |
| 20260503223208 | 7 | 222 | 1.6 | 3.2 | 0.00 | 0.00 | 0.00 | 62 | 1011.3 |
| 20260503222209 | 7 | 215 | 1.6 | 3.2 | 0.00 | 0.00 | 0.00 | 61 | 1011.3 |
| 20260503221209 | 6 | 209 | 3.2 | 4.8 | 0.00 | 0.00 | 0.00 | 62 | 1011.2 |
| 20260503220208 | 7 | 245 | 1.6 | 4.8 | 0.00 | 0.00 | 0.00 | 60 | 1011.4 |
| 20260503215208 | 8 | 259 | 1.6 | 4.8 | 0.00 | 0.00 | 0.00 | 58 | 1011.7 |
| 20260503214208 | 8 | 259 | 1.6 | 6.4 | 0.00 | 0.00 | 0.00 | 55 | 1011.7 |
| 20260503213208 | 10 | 268 | 1.6 | 6.4 | 0.00 | 0.00 | 0.00 | 50 | 1011.5 |
| 20260503212208 | 9 | 293 | 1.6 | 4.8 | 0.00 | 0.00 | 0.00 | 47 | 1011.5 |
| 20260503210208 | 8 | 296 | 0.0 | 6.4 | 0.00 | 0.00 | 0.00 | 48 | 1011.8 |
| 20260503205208 | 9 | 286 | 1.6 | 6.4 | 0.00 | 0.00 | 0.00 | 50 | 1011.7 |
| 20260503204208 | 8 | 299 | 1.6 | 4.8 | 0.00 | 0.00 | 0.00 | 51 | 1011.7 |
| 20260503203209 | 8 | 299 | 0.0 | 3.2 | 0.00 | 0.00 | 0.00 | 55 | 1011.8 |
| 20260503202210 | 8 | 323 | 0.0 | 3.2 | 0.00 | 0.00 | 0.00 | 57 | 1012.1 |
| 20260503201209 | 10 | 337 | 1.6 | 4.8 | 0.00 | 0.00 | 0.00 | 52 | 1012.2 |
| 20260503200208 | 8 | 340 | 1.6 | 4.8 | 0.00 | 0.00 | 0.00 | 54 | 1012.3 |
| 20260503195208 | 8 | 317 | 1.6 | 4.8 | 0.00 | 0.00 | 0.00 | 55 | 1012.6 |
| 20260503194208 | 8 | 313 | 1.6 | 4.8 | 0.00 | 0.00 | 0.00 | 58 | 1012.7 |
| 20260503193208 | 7 | 318 | 1.6 | 3.2 | 0.00 | 0.00 | 0.00 | 59 | 1012.8 |
| 20260503192208 | 7 | 319 | 1.6 | 4.8 | 0.00 | 0.00 | 0.00 | 60 | 1013.1 |
| 20260503191208 | 8 | 316 | 1.6 | 4.8 | 0.00 | 0.00 | 0.00 | 59 | 1013.1 |
| 20260503185208 | 8 | 301 | 1.6 | 6.4 | 0.00 | 0.00 | 0.00 | 60 | 1013.7 |
| 20260503184210 | 7 | 312 | 1.6 | 6.4 | 0.00 | 0.00 | 0.00 | 61 | 1013.7 |
| 20260503183208 | 8 | 330 | 1.6 | 6.4 | 0.00 | 0.00 | 0.00 | 60 | 1013.7 |
| 20260503182208 | 8 | 320 | 1.6 | 9.7 | 0.00 | 0.00 | 0.00 | 56 | 1013.9 |
| 20260503181208 | 8 | 327 | 1.6 | 6.4 | 0.00 | 0.00 | 0.00 | 58 | 1013.8 |
| 20260503175209 | 9 | 323 | 1.6 | 4.8 | 0.00 | 0.00 | 0.00 | 56 | 1013.8 |
| 20260503174209 | 8 | 308 | 1.6 | 9.7 | 0.00 | 0.00 | 0.00 | 56 | 1014.0 |
| 20260503173208 | 8 | 320 | 1.6 | 4.8 | 0.00 | 0.00 | 0.00 | 61 | 1014.1 |
| 20260503172208 | 8 | 334 | 1.6 | 4.8 | 0.00 | 0.00 | 0.00 | 59 | 1014.0 |
| 20260503171208 | 8 | 352 | 1.6 | 9.7 | 0.00 | 0.00 | 0.00 | 57 | 1014.4 |
| 20260503170208 | 7 | 325 | 3.2 | 9.7 | 0.00 | 0.00 | 0.00 | 59 | 1014.6 |
| 20260503160208 | 7 | 335 | 1.6 | 6.4 | 0.00 | 0.00 | 0.00 | 58 | 1015.1 |
| 20260503150208 | 6 | 337 | 1.6 | 4.8 | 0.00 | 0.00 | 0.00 | 62 | 1015.8 |
| 20260503140208 | 6 | 328 | 1.6 | 4.8 | 0.00 | 0.00 | 0.00 | 65 | 1016.0 |
| 20260503130209 | 5 | 294 | 1.6 | 4.8 | 0.00 | 0.00 | 0.00 | 69 | 1016.1 |
| 20260503110208 | 3 | 8 | 0.0 | 3.2 | 0.00 | 0.00 | 0.00 | 64 | 1015.9 |
| 20260503100208 | 2 | 17 | 0.0 | 4.8 | 0.00 | 0.00 | 0.00 | 67 | 1015.7 |
| 20260503090208 | 3 | 13 | 1.6 | 6.4 | 0.00 | 0.00 | 0.00 | 64 | 1015.6 |
| 20260503081208 | 3 | 20 | 3.2 | 6.4 | 0.00 | 0.00 | 0.00 | 63 | 1015.9 |
| 20260503080209 | 3 | 15 | 1.6 | 6.4 | 0.00 | 0.00 | 0.00 | 64 | 1016.0 |
| 20260503072209 | 4 | 13 | 3.2 | 9.7 | 0.00 | 0.00 | 0.00 | 65 | 1015.7 |
| 20260503071208 | 4 | 15 | 3.2 | 9.7 | 0.00 | 0.00 | 0.00 | 64 | 1015.8 |
| 20260503070209 | 5 | 11 | 4.8 | 9.7 | 0.00 | 0.00 | 0.00 | 62 | 1015.9 |
| 20260503060208 | 5 | 8 | 4.8 | 12.9 | 0.00 | 0.00 | 0.00 | 66 | 1016.1 |
| 20260503054209 | 5 | 12 | 4.8 | 9.7 | 0.00 | 0.00 | 0.00 | 66 | 1016.0 |
| 20260503053208 | 5 | 14 | 4.8 | 11.3 | 0.00 | 0.00 | 0.00 | 68 | 1016.0 |
| 20260503052209 | 5 | 16 | 3.2 | 9.7 | 0.00 | 0.00 | 0.00 | 67 | 1016.2 |
| 20260503051208 | 5 | 8 | 3.2 | 9.7 | 0.00 | 0.00 | 0.00 | 70 | 1016.3 |
| 20260503050209 | 5 | 9 | 3.2 | 6.4 | 0.00 | 0.00 | 0.00 | 70 | 1016.1 |
| 20260503045208 | 5 | 10 | 3.2 | 9.7 | 0.00 | 0.00 | 0.00 | 72 | 1016.4 |
| 20260503044209 | 5 | 13 | 3.2 | 6.4 | 0.00 | 0.00 | 0.00 | 73 | 1016.4 |
| 20260503043208 | 5 | 17 | 3.2 | 9.7 | 0.00 | 0.00 | 0.00 | 75 | 1016.3 |